Lexington Weather

Lexington, Massachusetts, USA

31°F
1/23/2020 9:57am 
  • Lexington Conditions: Partly cloudy
  • Temperature: 30.6°F / -0.8°CWarmer 4.5°F than last hour.
  • Dew Point: 20.5°FIncreased 1.6°Fsince last hour.
  • Relative Humidity: 66%Decreased 8.0% since last hour.
  • Wind: Calm, 10-min avg: Calm, gust: 1 mph
  • Barometer: 30.34 in Steady
  • Visibility: 10 miles
  • Snow Today: 0.0 in
  •   

Regional Weather Roundup
for Boston / Norton, MA

        
000
ASUS41 KBOX 221210
RWRBOX

REGIONAL WEATHER ROUNDUP
NATIONAL WEATHER SERVICE BOSTON/NORTON MA
700 AM EST WED JAN 22 2020

NOTE:  "FAIR" INDICATES FEW OR NO CLOUDS BELOW 12,000 FEET WITH NO 
SIGNIFICANT WEATHER AND/OR OBSTRUCTIONS TO VISIBILITY.

MAZALL-221300-
EASTERN MASSACHUSETTS
  
CITY           SKY/WX    TMP DP  RH WIND       PRES   REMARKS
BOSTON         FAIR      23   8  52 NW6       30.42R WCI  16          
6HR MIN TEMP:  20; 6HR MAX TEMP:  24;                                

BEVERLY        FAIR      12   2  64 CALM      30.41R                  
LAWRENCE       FAIR       7   3  84 SW5       30.43R WCI  -2          
BEDFORD        FAIR       6   0  76 CALM      30.41R                  
BLUE HILL        N/A     16   7  67 NW7       30.37R WCI   6          
NORWOOD        FAIR       9   1  70 CALM      30.44R                  
MARSHFIELD     FAIR      14   7  73 W3        30.42R                  
PLYMOUTH       FAIR      10   6  84 CALM      30.41R                  
TAUNTON        FAIR       7   2  80 CALM      30.43R                  
NEW BEDFORD    FAIR      10   7  87 CALM      30.42R                  
$$

MAZALL-221300-
CAPE COD AND THE ISLANDS
  
CITY           SKY/WX    TMP DP  RH WIND       PRES   REMARKS
FALMOUTH       CLEAR     10   5  79 CALM      30.42R                  
HYANNIS        FAIR      13   6  74 CALM      30.40R                  
CHATHAM        FAIR      16  12  84 CALM      30.42R                  
PROVINCETOWN   FAIR      15  12  88 CALM      30.42R                  
NANTUCKET      FAIR      19  11  70 CALM      30.42R                  
MARTHAS VNYRD  FAIR       9   3  77 CALM      30.42R                  
$$
 
MAZALL-221300-
CENTRAL AND WESTERN MASSACHUSETTS
  
CITY           SKY/WX    TMP DP  RH WIND       PRES   REMARKS
WORCESTER      FAIR      13   3  64 W3        30.35R                  
6HR MIN TEMP:  11; 6HR MAX TEMP:  17;                                

FITCHBURG      FAIR       9   3  77 N5        30.41R WCI   1          
ORANGE         FAIR      -1  -6  79 CALM      30.42R                  
SPRINGFIELD    PTCLDY     1  -4  81 CALM      30.43R                  
WESTFIELD      CLEAR      1  -2  85 CALM      30.44                   
NORTH ADAMS    CLOUDY    21  14  74 NW5       30.40R WCI  15          
PITTSFIELD     CLOUDY    21  13  71 MISG      30.34R                  
$$
 
RIZALL-221300-
RHODE ISLAND
  
CITY           SKY/WX    TMP DP  RH WIND       PRES   REMARKS
PROVIDENCE     FAIR      14   8  77 CALM      30.44R                  
6HR MIN TEMP:  14; 6HR MAX TEMP:  16;                                

NEWPORT        FAIR      18  10  71 CALM      30.41R                  
BLOCK ISLAND   FAIR      21  12  68 NW3       30.43R                  
SMITHFIELD     FAIR      12   4  70 CALM      30.41R                  
WESTERLY       FAIR      15   8  73 CALM      30.44R                  
$$
 
CTZALL-221300-
CONNECTICUT
  
CITY           SKY/WX    TMP DP  RH WIND       PRES   REMARKS
BRADLEY INTL   FAIR       6   1  80 CALM      30.44R                  
6HR MIN TEMP:   4; 6HR MAX TEMP:  14;                                

HARTFORD       FAIR      10   6  84 CALM      30.46R                  
BRIDGEPORT     FAIR      19   8  62 CALM      30.46R                  
DANBURY        FAIR       7   3  84 CALM      30.44R                  
GROTON         FAIR      13   8  81 N5        30.44R WCI   5          
NEW HAVEN      FAIR      16  10  77 CALM      30.45R                  
CHESTER        NOT AVBL                                               
MERIDEN        FAIR      10   5  80 CALM      30.46R                  
WILLIMANTIC    FAIR       5   0  79 CALM      30.46R                  
OXFORD         FAIR      14   7  73 N6        30.41R WCI   5          
$$

MEZ002-015-021-024-NHZ003-005-008-011-012-014-VTZ005-008-221300-
NORTHERN NEW ENGLAND
  
CITY           SKY/WX    TMP DP  RH WIND       PRES   REMARKS
PORTLAND ME    FAIR      13   6  74 CALM      30.40R                  
6HR MIN TEMP:   9; 6HR MAX TEMP:  15;                                

BANGOR ME      MOCLDY    12   8  84 CALM      30.39R                  
CONCORD NH     FAIR       3  -1  83 CALM      30.40R                  
MANCHESTER NH  FAIR       7   2  80 NW3       30.39R                  
NASHUA NH      FAIR       5   2  87 CALM      30.42R                  
PORTSMOUTH NH  CLEAR     11   4  72 W5        30.38R WCI   3          
JAFFREY NH     FAIR       1  -3  83 CALM      30.35R                  
KEENE NH       FAIR      -3  -6  87 CALM      30.43R                  
BURLINGTON VT  FAIR      22  13  68 S5        30.34S WCI  16          
MT. WASHINGTON MOCLDY    10   7  85 NW41        N/A  WCI -15          
$$

NYZ052-076-221300-
EASTERN NEW YORK
  
CITY           SKY/WX    TMP DP  RH WIND       PRES   REMARKS
ALBANY         CLOUDY    22  11  62 S3        30.44R                  
6HR MIN TEMP:  17; 6HR MAX TEMP:  22;                                

NEW YORK CITY  FAIR      27  14  58 NW7       30.45R WCI  19          
6HR MIN TEMP:  26; 6HR MAX TEMP:  28;                                

$$
 
ANZALL-221300-
MARINE OBSERVATIONS
  
STATION/POSITION TIME  TEMP    WIND        PRES    VSBY  WAVE
                       AIR SEA DIR/SP/G                  HT/PER
                 (UTC) (F)     (DEG/KT/KT) (MB)    (MI)  (FT/S)
BOSTON BUOY      1150   28 42  280/  6/ 10 1029.3R         1/ 9
BUZZARDS BAY     1100   27     340/  4/  4 1030.1R
NANTUCKET SOUND  1140                        N/A           0
MASS BAY-STELLWA 1104   27 41  310/  8/ 10 1027.2R  1 7/8  2/11
ISLE OF SHOALS   1100   22     270/  8/ 10 1028.7R
S OF BLOCK IS    1200      45                N/A           2/ 9
$$

......................KEY.........................
  SKY/WX - SKY CONDITION/PRESENT WEATHER
  TMP    - TEMPERATURE IN FAHRENHEIT
  DWPT   - DEWPOINT IN FAHRENHEIT
  RH     - RELATIVE HUMIDITY IN PERCENT
  WIND   - DIRECTION AND SPEED IN MPH
  PRES   - MEAN SEA LEVEL PRESSURE IN INCHES OF HG
  WCI    - WIND CHILL INDEX
  VSB    - VISIBILITY IN MILES
  HX     - HEAT INDEX
  TC     - TEMPERATURE IN CELSIUS
  VRB    - VARIABLE WIND DIRECTION
  N/A    - NOT AVAILABLE
  
      

Other recent Regional Weather Roundups

Thu Jan 23, 9:10am

Thu Jan 23, 9:00am

Thu Jan 23, 8:10am

Thu Jan 23, 8:00am

Thu Jan 23, 7:10am

Thu Jan 23, 7:01am

Thu Jan 23, 6:10am

Thu Jan 23, 6:00am

Thu Jan 23, 5:10am

Thu Jan 23, 5:00am

Thu Jan 23, 4:10am

Thu Jan 23, 4:01am

Thu Jan 23, 3:10am

Thu Jan 23, 3:00am

Thu Jan 23, 2:10am

Thu Jan 23, 2:00am

Thu Jan 23, 1:10am

Thu Jan 23, 1:00am

Thu Jan 23, 12:10am

Thu Jan 23, 12:00am

Wed Jan 22, 11:10pm

Wed Jan 22, 11:01pm

Wed Jan 22, 10:10pm

Wed Jan 22, 10:00pm

Wed Jan 22, 9:10pm

Wed Jan 22, 9:00pm

Wed Jan 22, 8:10pm

Wed Jan 22, 8:01pm

Wed Jan 22, 7:10pm

Wed Jan 22, 7:00pm

Wed Jan 22, 6:10pm

Wed Jan 22, 6:01pm

Wed Jan 22, 5:10pm

Wed Jan 22, 5:00pm

Wed Jan 22, 4:10pm

Wed Jan 22, 4:00pm

Wed Jan 22, 3:10pm

Wed Jan 22, 3:00pm

Wed Jan 22, 2:10pm

Wed Jan 22, 2:00pm

Wed Jan 22, 1:10pm

Wed Jan 22, 1:00pm

Wed Jan 22, 12:10pm

Wed Jan 22, 12:00pm

Wed Jan 22, 11:10am

Wed Jan 22, 11:00am

Wed Jan 22, 10:10am

Wed Jan 22, 10:01am

Wed Jan 22, 9:10am

Wed Jan 22, 9:00am

Wed Jan 22, 8:10am

Wed Jan 22, 8:00am

Wed Jan 22, 7:00am

Wed Jan 22, 6:10am

Wed Jan 22, 6:00am

Wed Jan 22, 5:10am

Wed Jan 22, 5:00am

Wed Jan 22, 4:10am

Wed Jan 22, 4:00am

Wed Jan 22, 3:10am

Wed Jan 22, 3:01am

Wed Jan 22, 2:10am

Wed Jan 22, 2:00am

Wed Jan 22, 1:10am

Wed Jan 22, 1:00am

Wed Jan 22, 12:10am

Wed Jan 22, 12:00am

Tue Jan 21, 11:10pm

Tue Jan 21, 11:00pm

Tue Jan 21, 10:10pm

Tue Jan 21, 10:00pm

Tue Jan 21, 9:10pm

Tue Jan 21, 9:01pm

Tue Jan 21, 8:10pm

Tue Jan 21, 8:00pm

Tue Jan 21, 7:10pm

Tue Jan 21, 7:00pm

Tue Jan 21, 6:10pm

Tue Jan 21, 6:01pm

Tue Jan 21, 5:10pm

Tue Jan 21, 5:00pm

Tue Jan 21, 4:10pm

Tue Jan 21, 4:00pm

Tue Jan 21, 3:10pm

Tue Jan 21, 3:01pm

Tue Jan 21, 2:10pm

Tue Jan 21, 2:00pm

Tue Jan 21, 1:10pm

Tue Jan 21, 1:00pm

Tue Jan 21, 12:10pm

Tue Jan 21, 12:00pm

Tue Jan 21, 11:10am

Tue Jan 21, 11:00am

Tue Jan 21, 10:10am

Tue Jan 21, 10:00am

Tue Jan 21, 9:10am

Tue Jan 21, 9:00am

Tue Jan 21, 8:10am

Tue Jan 21, 8:00am

Tue Jan 21, 7:10am

Tue Jan 21, 7:00am

Tue Jan 21, 6:10am

Tue Jan 21, 6:00am

Tue Jan 21, 5:10am

Tue Jan 21, 5:00am

Tue Jan 21, 4:10am

Tue Jan 21, 4:00am

Tue Jan 21, 3:10am

Tue Jan 21, 3:00am

Tue Jan 21, 2:10am

Tue Jan 21, 2:01am

Tue Jan 21, 1:10am

Tue Jan 21, 1:00am

Tue Jan 21, 12:10am

Tue Jan 21, 12:00am

Mon Jan 20, 11:10pm

Mon Jan 20, 11:00pm

Mon Jan 20, 10:10pm

Mon Jan 20, 10:00pm

Mon Jan 20, 9:10pm

Mon Jan 20, 9:00pm

Mon Jan 20, 8:10pm

Mon Jan 20, 8:00pm

Mon Jan 20, 7:10pm

Mon Jan 20, 7:00pm

Mon Jan 20, 6:10pm

Mon Jan 20, 6:00pm

Mon Jan 20, 5:10pm

Mon Jan 20, 5:00pm

Mon Jan 20, 4:10pm

Mon Jan 20, 4:01pm

Mon Jan 20, 3:10pm

Mon Jan 20, 3:00pm

Mon Jan 20, 2:10pm

Mon Jan 20, 2:00pm

Mon Jan 20, 1:10pm

Mon Jan 20, 1:00pm

Mon Jan 20, 12:10pm

Mon Jan 20, 12:00pm

Mon Jan 20, 11:10am

Mon Jan 20, 11:00am

Mon Jan 20, 10:10am

Mon Jan 20, 10:00am

Meta data:

ID: 8302609c-6554-4beb-a8ed-01e93a9a0c2a
Link: https://api.weather.gov/products/8302609c-6554-4beb-a8ed-01e93a9a0c2a